Regional Weather Roundup
Issued by NWS

Home | Current Version | Previous Version | Graphics & Text | Print | Product List | Glossary On
Versions: 1 2 3 4 5 6 7 8 9 10 11 12 13 14 15 16 17 18 19 20 21 22 23 24 25 26 27 28 29 30 31 32 33 34 35 36 37 38 39 40 41 42 43 44 45 46 47 48 49 50
855
ASUS45 KBOU 240907
RWRCO

WEATHER ROUNDUP FOR COLORADO
NATIONAL WEATHER SERVICE DENVER/BOULDER CO
300 AM MDT TUE MAY 24 2016

NOTE: "FAIR" INDICATES FEW OR NO CLOUDS BELOW 12000 FEET WITH NO
SIGNIFICANT WEATHER AND/OR OBSTRUCTIONS TO VISIBILITY.

COZ001>005-013-030-031-241000-
...NORTHWEST COLORADO...

CITY           SKY/WX    TMP DP  RH WIND       PRES   REMARKS
CRAIG          FAIR      35  31  85 CALM      29.93F
HAYDEN         FAIR      43  28  56 E10       29.93F
MEEKER         FAIR      42  31  64 E3        29.92F
MOUNT WERNER   NOT AVBL
STEAMBOAT SPGS FAIR      38  28  65 CALM      29.95F
WALDEN         FAIR      30  25  80 SE8       30.03F WCI  23
$$

COZ006>008-011-241000-
...WEST CENTRAL VALLEYS...

CITY           SKY/WX    TMP DP  RH WIND       PRES   REMARKS
GRAND JUNCTION FAIR      53  23  31 E13       29.82F
MONTROSE       FAIR      51  23  33 SE13      29.92S
EAGLE          FAIR      39  25  56 CALM      29.99R
RIFLE          FAIR      43  30  60 CALM      29.89S
DELTA          FAIR      49  25  38 N5        29.89R
NUCLA          FAIR      54  18  24 S9        29.94S
$$

COZ017>023-064>068-241000-
...SOUTHWEST COLORADO...

CITY           SKY/WX    TMP DP  RH WIND       PRES   REMARKS
DURANGO        FAIR      36  24  62 CALM      30.00R
CORTEZ         FAIR      38  25  59 CALM      29.95S
PAGOSA SPRINGS FAIR      36  24  61 CALM      30.05S
TELLURIDE      FAIR      50  10  20 SE6       30.09S
WOLF CREEK PAS FAIR      32  14  47 SW21G31   30.22F WCI  20
$$

COZ009-010-012-014-032>034-037-058>063-241000-
...CENTRAL COLORADO...

CITY           SKY/WX    TMP DP  RH WIND       PRES   REMARKS
ASPEN          FAIR      37  22  54 SW9       29.99S
BUENA VISTA    FAIR      37  22  54 NW7       30.04R
COPPER MTN     NOT AVBL
BERTHOUD PASS  FAIR      30  21  69 SW9       30.21F WCI  22
COTTONWOOD PAS FAIR      46  10  23 SE6       30.11R
GUNNISON       FAIR      36  21  55 CALM      30.06S
KREMMLING      FAIR      34  30  86 CALM      30.02S
LEADVILLE      FAIR      29  16  58 S3        30.09F
MONARCH PASS   FAIR      32  14  47 MISG      30.30S
SALIDA         FAIR      44  21  40 NW6       30.09S
SUNLIGHT       FAIR      36  14  41 CALM      30.15S
WILKERSON PASS FAIR      34  14  44 SW5       30.19S WCI  30
$$

COZ069>075-241000-
...SAN LUIS VALLEY/SANGRE DE CRISTO MOUNTAINS...

CITY           SKY/WX    TMP DP  RH WIND       PRES   REMARKS
ALAMOSA        FAIR      39  24  55 S7        30.02R
LA VETA PASS   FAIR      43  14  31 S7        30.14S
SAGUACHE       FAIR      41  21  45 N10       30.04S
$$

COZ035-036-038>040-241000-
...NORTHERN COLORADO FRONT RANGE...

CITY           SKY/WX    TMP DP  RH WIND       PRES   REMARKS
DENVER INTL AP FAIR      46  39  76 S8        29.93F
DMNS CITY PARK   N/A     47  46  94 SE6       29.94R
AURORA         PTCLDY    45  42  91 S6        29.95S
FRONT RANGE AP NOT AVBL
ERIE MUNI ARPT FAIR      43  41  95 CALM      29.93S
BOULDER MUN AP FAIR      46  41  81 CALM      29.93S
CENTENNIAL     FAIR      45  40  82 SW5       29.95F
BROOMFIELD     FAIR      46  43  87 W3        29.95S
FORT COLLINS   FAIR      45  39  81 N6        29.94F
LONGMONT       FAIR      48  43  84 CALM      29.95S
$$

COZ041-046-047-076>085-087-088-241000-
...PIKES PEAK/PALMER DIVIDE AND SOUTHERN FOOTHILLS...

CITY           SKY/WX    TMP DP  RH WIND       PRES   REMARKS
COLO. SPRINGS  MOCLDY    54  38  54 NW5       29.96S
A. F. ACADEMY  MOCLDY    43  39  87 N7        29.97S
SCHRIEVER AFB  NOT AVBL
ELLICOTT       FAIR     N/A N/A N/A NW9       29.93S
FALCON         MOCLDY    52  40  63 N5        29.99S
FORT CARSON    CLOUDY    54  41  62 NW9       29.93S
LIMON          FAIR      43  40  89 NW6       29.91F
MONUMENT HILL  CLOUDY    41  37  87 SW3       30.01S
TRINIDAD       FAIR      47  27  45 N10       29.92R
$$

COZ042>045-048>051-090-091-241000-
...NORTHEAST COLORADO...

CITY           SKY/WX    TMP DP  RH WIND       PRES   REMARKS
GREELEY ARPT   FAIR      45  39  81 CALM      29.93F
AKRON          MOCLDY    48  45  89 W5        29.89S
BURLINGTON     CLOUDY    53  42  66 N10       29.87R
WRAY           LGT RAIN  57  46  67 NE10G29   29.89R
STERLING       FAIR      45  43  93 N6        29.87S
HOLYOKE        FAIR      54  48  82 N7        29.86F
FORT MORGAN    FAIR      46  41  82 NW9       29.91F
$$

COZ086-089-092>099-241000-
...SOUTHEAST COLORADO...

CITY           SKY/WX    TMP DP  RH WIND       PRES   REMARKS
PUEBLO         FAIR      58  45  62 N13       29.88R
LA JUNTA       FAIR      55  50  83 N7        29.83R
LAMAR          FAIR      48  47  96 S7        29.75S
SPRINGFIELD      N/A     58  57  97 S12       29.83S
$$




USA.gov is the U.S. government's official web portal to all federal, state and local government web resources and services.